Location: Maddington
(51.2000°N, 1.9167°W)
Time: 10:10:49
(UTC+00:00)

NOSS 2-2 (E) - Pass Details

Date: 23 January 2021
Orbit: 465 x 1741 km, 63.3° (Epoch: 16 January)

Event Time Altitude Azimuth Distance (km) Brightness Sun altitude
Rises 21:31:17 0° 311° (NW) 3,196 8.0 -44.1°
Reaches altitude 10° 21:33:28 10° 305° (NW) 2,421 7.2 -44.4°
Enters shadow 21:34:20 15° 301° (WNW) 2,141 6.8 -44.5°
